Regional Weather Roundup
Issued by NWS

Home | Current Version | Previous Version | Text Only | Print | Product List | Glossary Off
Versions: 1 2 3 4 5 6 7 8 9 10 11 12 13 14 15 16 17 18 19 20 21 22 23 24 25 26 27 28 29 30 31 32 33 34 35 36 37 38 39 40 41 42 43 44 45 46 47 48 49 50

000
ASUS43 KDMX 201807
RWRIA

WEATHER ROUNDUP FOR IOWA
NATIONAL WEATHER SERVICE DES MOINES IA
100 PM CDT MON OCT 20 2014

NOTE: "FAIR" INDICATES FEW OR NO CLOUDS BELOW 12,000 FEET WITH NO
SIGNIFICANT WEATHER AND/OR OBSTRUCTIONS TO VISIBILITY.

* - THESE STATIONS ARE NOT NWS STATIONS...THUS NOT UNDER NWS
QUALITY CONTROL.  THEY ALSO DO NOT REPORT WEATHER SUCH
AS PRECIPITATION OR FOG.

IAZ001>003-012>014-020>022-031>034-043>046-201900-
   NORTHWEST IOWA

CITY           SKY/WX    TMP DP  RH WIND       PRES   REMARKS
CARROLL *      SUNNY     68  41  37 NW14      30.05F
CHEROKEE *     SUNNY     65  42  42 NW8G16    30.06F
DENISON *      SUNNY     68  43  40 NW12      30.05F
LE MARS *      SUNNY     68  41  37 NW9       30.08F
ORANGE CITY *  SUNNY     68  37  32 N9G16     30.07F
SHELDON *      SUNNY     66  39  37 NW9G15    30.06F
SIOUX CITY     SUNNY     69  41  36 NW10      30.09F
6HR MIN TEMP:  37; 6HR MAX TEMP:  69;

SPENCER        SUNNY     67  41  38 NW12      30.05F
6HR MIN TEMP:  34; 6HR MAX TEMP:  68;

STORM LAKE *   SUNNY     66  41  39 NW12G18   30.07F
$$

IAZ055>058-069>071-079>083-090>094-201900-
   SOUTHWEST IOWA

CITY           SKY/WX    TMP DP  RH WIND       PRES   REMARKS
ATLANTIC *     SUNNY     68  43  40 N10       30.06F
AUDUBON *      SUNNY     68  34  28 N7        30.07F
CLARINDA *     SUNNY     70  41  35 N9        30.08F
COUNCIL BLFS * SUNNY     68  45  42 W6        30.08F
CRESTON *      SUNNY     66  43  42 N10       30.07S
HARLAN  *      SUNNY     68  41  37 N10       30.11S
LAMONI         SUNNY     67  45  45 NW12      30.06S
6HR MIN TEMP:  48; 6HR MAX TEMP:  68;

RED OAK *      SUNNY     68  41  37 CALM      30.07F
SHENANDOAH *   SUNNY     70  41  35 CALM      30.08F
$$

IAZ047>049-059>061-072>074-084-201900-
   CENTRAL IOWA

CITY           SKY/WX    TMP DP  RH WIND       PRES   REMARKS
AMES           SUNNY     68  42  38 NW14      30.02F
6HR MIN TEMP:  43; 6HR MAX TEMP:  68;

ANKENY *       SUNNY     68  45  42 NW14      30.02F
CHARITON *     SUNNY     66  43  42 NW10      30.03F
DES MOINES     SUNNY     68  41  37 NW13      30.03F
6HR MIN TEMP:  47; 6HR MAX TEMP:  69;

GRINNELL*      SUNNY     67  41  38 NW12G21   30.01F
KNOXVILLE *    SUNNY     66  43  42 NW12G18   30.01F
MARSHALLTOWN   SUNNY     66  44  45 NW14      29.99F
6HR MIN TEMP:  39; 6HR MAX TEMP:  66;

PELLA *        SUNNY     67  44  42 NW10G17   30.02F
PERRY *          N/A     68  41  37 NW10G16   30.04F
$$

IAZ004>006-015-016-023>025-035-036-201900-
   NORTH CENTRAL IOWA

CITY           SKY/WX    TMP DP  RH WIND       PRES   REMARKS
ALGONA *       SUNNY     66  41  39 NW13      30.02F
CLARION *      SUNNY     66  41  39 NW15G21   30.01F
ESTHERVILLE    SUNNY     67  40  37 NW15      30.03F
6HR MIN TEMP:  40; 6HR MAX TEMP:  67;

FORT DODGE *   SUNNY     66  43  42 NW6       30.03F
MASON CITY     SUNNY     65  43  44 NW17G24   30.01F
6HR MIN TEMP:  39; 6HR MAX TEMP:  65;

FOREST CITY *  SUNNY     64  43  45 NW15G23   30.00F
IOWA FALLS *     N/A     66  41  39 NW17      30.01F
$$

IAZ007>011-017>019-026>030-037>042-050>054-066-201900-
   NORTHEAST IOWA

CITY           SKY/WX    TMP DP  RH WIND       PRES   REMARKS
CEDAR RAPIDS   SUNNY     64  45  49 NW18G25   29.96F
6HR MIN TEMP:  44; 6HR MAX TEMP:  65;

CHARLES CITY * SUNNY     64  41  42 N18G25    29.98F
CLINTON *      SUNNY     64  43  45 NW16G22   29.95F
DECORAH *      SUNNY     61  45  55 NW13G18   29.95F
DUBUQUE        SUNNY     62  45  53 NW14G23   29.93F
6HR MIN TEMP:  48; 6HR MAX TEMP:  62;

MONTICELLO *   MOSUNNY   64  45  48 NW16      29.94F
OELWEIN *      SUNNY     64  43  45 NW20G28   29.96F
WATERLOO       SUNNY     66  43  43 N18G25    29.97F
6HR MIN TEMP:  43; 6HR MAX TEMP:  66;

$$

IAZ064-065-067-068-078-201900-
   EAST CENTRAL IOWA

CITY           SKY/WX    TMP DP  RH WIND       PRES   REMARKS
DAVENPORT      SUNNY     65  42  43 NW14G24   29.94F
6HR MIN TEMP:  44; 6HR MAX TEMP:  65;

IOWA CITY      SUNNY     64  45  49 N17G24    29.98F
6HR MIN TEMP:  47; 6HR MAX TEMP:  65;

MT. PLEASANT * SUNNY     64  44  47 NW15G23   29.98F
MUSCATINE *    SUNNY     66  45  45 N14G24    29.96F
QUAD CITIES    SUNNY     65  44  46 N13       29.93F
6HR MIN TEMP:  50; 6HR MAX TEMP:  65;

$$

IAZ062-063-075>077-085>089-095>099-201900-
   SOUTHEAST IOWA

CITY           SKY/WX    TMP DP  RH WIND       PRES   REMARKS
BURLINGTON     SUNNY     66  45  46 N13       29.97F
6HR MIN TEMP:  50; 6HR MAX TEMP:  66;

FAIRFIELD *    SUNNY     66  43  42 N13       30.00F
FORT MADISON * SUNNY     70  46  43 NW10G16   29.99F
KEOKUK *       SUNNY     66  45  45 N13G20    29.98F
OSKALOOSA *      N/A     66  43  42 N10G16    30.01F
CENTERVILLE *  SUNNY     66  45  45 N8        30.04F
OTTUMWA        SUNNY     66  46  48 N7        30.00F
6HR MIN TEMP:  46; 6HR MAX TEMP:  66;

WASHINGTON *   SUNNY     66  45  45 NW14G23   29.98F
$$

ABBREVIATIONS USED IN REMARKS
   TC - TEMPERATURES IN CELSIUS
  WCI - WIND CHILL INDEX
   HX - HEAT INDEX
  VSB - VISIBILITY
$$




USA.gov is the U.S. government's official web portal to all federal, state and local government web resources and services.